Location: Laura�t
(43.9341°N, 0.2497°E)
Time: 00:11:24
(UTC+00:00)

Cosmos 1271 Rocket - Pass Details

Date: 03 March 2021
Orbit: 498 x 544 km, 81.2° (Epoch: 17 April)

Event Time Altitude Azimuth Distance (km) Brightness Sun altitude
Rises 18:29:36 0° 346° (NNW) 2,600 6.4 -7.9°
Reaches altitude 10° 18:31:44 10° 343° (NNW) 1,712 5.6 -8.3°
Maximum altitude 18:35:26 60° 263° (W) 579 3.3 -8.9°
Drops below altitude 10° 18:39:07 10° 183° (S) 1,709 5.4 -9.6°
Sets 18:41:15 0° 180° (S) 2,594 6.3 -10.0°
